Flag for Switzerland Weather past 2 weeks in Köniz, Bern, Switzerland

Now
50 °F

Sunny.


Feels Like: 48 °F
Forecast: 44 / 50 °F
Wind: 5 mph from North

Location: Bern / Belp

Current Time: Mar 28, 2015 at 12:36:05 PM

Latest Report: Mar 28, 2015 at 12:20 PM


Visibility: 10 mi

Pressure: 30.15 "Hg

Humidity: 54%

Dew point: 34 °F

Location of KönizLocation

Historic Weather in Köniz — Graph

°F

Köniz temperature yesterday

Maximum temperature yesterday: 52 °F (at 1:50 PM)
Minimum temperature yesterday: 32 °F (at 11:50 PM)
Average temperature yesterday: 44 °F

Past Weeks' High & Low Weather Summary

 TemperatureHumidityPressure
High64 °F (Mar 18, 2:20 PM)100% (Mar 14, 2:20 AM)30.27 "Hg (Mar 14, 2:20 AM)
Low25 °F (Mar 15, 5:20 AM)31% (Mar 17, 1:50 PM)29.59 "Hg (Mar 25, 11:50 AM)
Average43 °F77%30.02 "Hg
* Reported Mar 13 11:20 AM — Mar 28 11:20 AM, Köniz, Weather by CustomWeather, © 2015

Note: Actual official high and low records may vary slightly from our data, if they occured in-between our weather recording intervals... More about our weather records

Advertising

Köniz weather history for previous 24 hours

 ConditionsComfort  
Time TempWeatherWind HumidityBarometerVisibility
11:20 AM
Sat, Mar 28
48 °FSunny.2 mph54%30.18 "Hg10 mi
10:50 AM48 °FSunny.2 mph54%30.18 "Hg10 mi
10:20 AM46 °FSunny.2 mph57%30.21 "Hg10 mi
9:50 AM45 °FPassing clouds.6 mph61%30.21 "HgN/A
9:20 AM43 °FPassing clouds.6 mph66%30.21 "HgN/A
8:50 AM41 °FPassing clouds.5 mph76%30.21 "HgN/A
8:20 AM37 °FSunny.1 mph81%30.21 "Hg10 mi
7:50 AM34 °FSunny.1 mph93%30.24 "Hg10 mi
7:20 AM32 °FSunny.No wind93%30.24 "Hg10 mi
6:50 AM28 °FSunny.3 mph100%30.24 "Hg10 mi
6:20 AM28 °FSunny.6 mph100%30.24 "Hg10 mi
5:50 AM28 °FClear.2 mph100%30.24 "Hg10 mi
5:20 AM28 °FClear.3 mph100%30.24 "Hg10 mi
4:20 AM28 °FClear.1 mph100%30.24 "Hg10 mi
3:50 AM28 °FClear.1 mph93%30.24 "Hg10 mi
3:20 AM28 °FClear.2 mph93%30.24 "Hg10 mi
2:50 AM30 °FClear.2 mph93%30.24 "Hg10 mi
2:20 AM30 °FClear.1 mph93%30.24 "Hg10 mi
1:50 AM30 °FClear.3 mph93%30.24 "Hg10 mi
1:20 AM32 °FClear.2 mph93%30.24 "Hg10 mi
12:50 AM30 °FClear.2 mph93%30.24 "Hg10 mi
12:20 AM32 °FClear.2 mph93%30.27 "Hg10 mi
11:50 PM
Fri, Mar 27
32 °FClear.1 mph93%30.27 "Hg10 mi
11:20 PM34 °FChilly.1 mph93%30.24 "HgN/A
10:50 PM34 °FClear.1 mph93%30.24 "Hg10 mi
10:20 PM36 °FPassing clouds.1 mph87%30.24 "HgN/A
9:50 PM37 °FPassing clouds.1 mph87%30.24 "HgN/A
9:20 PM39 °FPassing clouds.1 mph81%30.24 "HgN/A
8:50 PM37 °FPassing clouds.3 mph87%30.24 "HgN/A
8:20 PM41 °FPassing clouds.1 mph76%30.21 "HgN/A
7:50 PM41 °FPassing clouds.1 mph76%30.21 "HgN/A
7:20 PM45 °FPassing clouds.5 mph61%30.21 "HgN/A
6:50 PM45 °FPassing clouds.9 mph66%30.18 "HgN/A
6:20 PM50 °FScattered clouds.10 mph47%30.18 "HgN/A
5:50 PM50 °FPassing clouds.10 mph50%30.15 "HgN/A
5:20 PM52 °FScattered clouds.12 mph44%30.15 "HgN/A
4:50 PM52 °FScattered clouds.12 mph47%30.15 "HgN/A
4:20 PM52 °FPartly sunny.12 mph47%30.15 "HgN/A
3:50 PM52 °FScattered clouds.9 mph44%30.12 "HgN/A
3:20 PM52 °FScattered clouds.12 mph47%30.12 "HgN/A
2:50 PM50 °FScattered clouds.13 mph54%30.12 "HgN/A
2:20 PM52 °FPassing clouds.8 mph44%30.12 "HgN/A
1:50 PM52 °FScattered clouds.10 mph50%30.12 "HgN/A
1:20 PM50 °FScattered clouds.10 mph54%30.12 "HgN/A
12:50 PM48 °FPartly sunny.9 mph66%30.12 "HgN/A
12:20 PM46 °FPartly sunny.10 mph66%30.12 "HgN/A
Weather by CustomWeather, © 2015

See weather overviewHow to use our weather pages